sat.trackr.live / text

‹ back to catalog

GXIBA-1

NORAD 67685 · 1998-067YB

PAYLOAD ACTIVE UNKNOWN

§ Identity

Operator
Country
MEX
Launch date
1998-11-20
Launch site
TYMSC
Launch vehicle
Mass (kg)
RCS (m²)

Purposes: station

External: N2YO · Heavens-Above · Gunter

§ Orbital elements

Epoch: 2026-05-24T23:23:45.585888Z

Period
92.38 min
Inclination
51.6289°
Eccentricity
0.0013488
Mean motion
15.58858192 rev/d
Perigee alt
381.8 km
Apogee alt
400.1 km
Semi-major
6,769.1 km
B*
6.1449e-4
RAAN
50.5589°
Arg perigee
113.7790°
Mean anomaly
246.4618°
Rev number
1,666

§ Raw data

GXIBA-11 67685U 98067YB  26144.97483317  .00048472  00000+0  61449-3 0  99922 67685  51.6289  50.5589 0013488 113.7790 246.4618 15.58858192 16661

JSON: /api/v1/satellites/67685 · /tle

For live sub-satellite position, see the globe view (requires WebGL).

§ Visibility from observer

Set your observer location to see the next 7 days of passes ≥ 10°. The values pass through the URL so the page stays shareable.

No JS? Fill the form by hand. The geolocation button needs JavaScript.

§ Radio — SatNOGS DB

ModeDescriptionDownlinkUplink
MSK AX.100 Mode 5 Mode U - Transmitter 401.140 MHz

1 transmitter · refreshed weekly from db.satnogs.org